Time,TemperatureF,DewpointF,PressureIn,WindDirection,WindDirectionDegrees,WindSpeedMPH,WindSpeedGustMPH,Humidity,HourlyPrecipIn,Conditions,Clouds,dailyrainin,SoftwareType,DateUTC
2013-05-20 00:01:00,60.0,40.0,30.23,NW,323,9.0,14.0,47,0.00,,,0.00,,2013-05-20 07:01:00,
2013-05-20 00:11:00,60.0,40.0,30.23,NW,323,9.0,14.0,47,0.00,,,0.00,,2013-05-20 07:11:00,
2013-05-20 00:21:00,60.0,40.0,30.22,NW,323,4.0,9.0,47,0.00,,,0.00,,2013-05-20 07:21:00,
2013-05-20 00:32:00,58.0,39.0,30.23,East,82,1.0,10.0,50,0.00,,,0.00,,2013-05-20 07:32:00,
2013-05-20 00:41:00,58.0,39.0,30.23,East,82,1.0,10.0,50,0.00,,,0.00,,2013-05-20 07:41:00,
2013-05-20 00:52:00,55.0,39.0,30.23,NNE,30,2.0,6.0,55,0.00,,,0.00,,2013-05-20 07:52:00,
2013-05-20 01:01:00,55.0,40.0,30.24,SE,129,0.0,3.0,56,0.00,,,0.00,,2013-05-20 08:01:00,
2013-05-20 01:11:00,55.0,40.0,30.24,SE,129,0.0,3.0,56,0.00,,,0.00,,2013-05-20 08:11:00,
2013-05-20 01:21:00,54.0,39.0,30.24,South,182,2.0,5.0,57,0.00,,,0.00,,2013-05-20 08:21:00,
2013-05-20 01:31:00,53.0,39.0,30.24,East,80,1.0,4.0,60,0.00,,,0.00,,2013-05-20 08:31:00,
2013-05-20 01:41:00,53.0,39.0,30.24,East,80,1.0,4.0,60,0.00,,,0.00,,2013-05-20 08:41:00,
2013-05-20 01:52:00,53.0,39.0,30.24,East,80,1.0,3.0,59,0.00,,,0.00,,2013-05-20 08:52:00,
2013-05-20 02:01:00,53.0,39.0,30.24,East,80,1.0,3.0,59,0.00,,,0.00,,2013-05-20 09:01:00,
2013-05-20 02:12:00,53.0,39.0,30.24,East,80,1.0,3.0,59,0.00,,,0.00,,2013-05-20 09:12:00,
2013-05-20 02:21:00,53.0,39.0,30.24,East,80,1.0,3.0,59,0.00,,,0.00,,2013-05-20 09:21:00,
2013-05-20 08:53:00,57.0,41.0,30.24,SE,125,3.0,6.0,56,0.00,,,0.00,,2013-05-20 15:53:00,
2013-05-20 09:03:00,58.0,42.0,30.24,SE,137,2.0,4.0,56,0.00,,,0.00,,2013-05-20 16:03:00,
2013-05-20 09:12:00,58.0,42.0,30.24,SE,137,2.0,4.0,56,0.00,,,0.00,,2013-05-20 16:12:00,
2013-05-20 09:22:00,60.0,42.0,30.23,ESE,121,2.0,3.0,52,0.00,,,0.00,,2013-05-20 16:22:00,
2013-05-20 09:32:00,61.0,43.0,30.22,ESE,120,1.0,4.0,51,0.00,,,0.00,,2013-05-20 16:32:00,
2013-05-20 09:42:00,61.0,43.0,30.22,ESE,120,1.0,4.0,51,0.00,,,0.00,,2013-05-20 16:42:00,
2013-05-20 09:53:00,62.0,42.0,30.21,South,176,2.0,4.0,48,0.00,,,0.00,,2013-05-20 16:53:00,
2013-05-20 10:02:00,64.0,43.0,30.20,SSE,165,2.0,4.0,46,0.00,,,0.00,,2013-05-20 17:02:00,
2013-05-20 10:11:00,64.0,43.0,30.20,SSE,165,2.0,4.0,46,0.00,,,0.00,,2013-05-20 17:11:00,
2013-05-20 10:22:00,65.0,43.0,30.19,SW,227,2.0,4.0,44,0.00,,,0.00,,2013-05-20 17:22:00,
2013-05-20 10:32:00,65.0,43.0,30.19,WNW,288,3.0,4.0,44,0.00,,,0.00,,2013-05-20 17:32:00,
2013-05-20 10:45:00,65.0,43.0,30.19,WNW,288,3.0,4.0,44,0.00,,,0.00,,2013-05-20 17:45:00,
2013-05-20 10:53:00,66.0,42.0,30.18,WSW,241,2.0,5.0,41,0.00,,,0.00,,2013-05-20 17:53:00,
2013-05-20 11:02:00,67.0,43.0,30.17,West,264,2.0,5.0,41,0.00,,,0.00,,2013-05-20 18:02:00,
2013-05-20 11:12:00,67.0,43.0,30.17,West,264,2.0,5.0,41,0.00,,,0.00,,2013-05-20 18:12:00,
2013-05-20 11:23:00,68.0,43.0,30.17,WNW,285,1.0,5.0,40,0.00,,,0.00,,2013-05-20 18:23:00,
2013-05-20 11:32:00,70.0,44.0,30.16,NNW,341,1.0,7.0,39,0.00,,,0.00,,2013-05-20 18:32:00,
2013-05-20 11:41:00,70.0,44.0,30.16,NNW,341,1.0,7.0,39,0.00,,,0.00,,2013-05-20 18:41:00,
2013-05-20 11:55:00,71.0,42.0,30.16,ENE,76,2.0,5.0,35,0.00,,,0.00,,2013-05-20 18:55:00,
2013-05-20 12:04:00,72.0,46.0,30.15,SW,225,3.0,7.0,39,0.00,,,0.00,,2013-05-20 19:04:00,
2013-05-20 12:11:00,72.0,46.0,30.15,SW,225,3.0,7.0,39,0.00,,,0.00,,2013-05-20 19:11:00,
2013-05-20 12:21:00,72.0,41.0,30.15,South,178,4.0,7.0,33,0.00,,,0.00,,2013-05-20 19:21:00,
2013-05-20 12:32:00,72.0,41.0,30.14,SE,138,9.0,15.0,32,0.00,,,0.00,,2013-05-20 19:32:00,
2013-05-20 12:41:00,72.0,41.0,30.14,SE,138,9.0,15.0,32,0.00,,,0.00,,2013-05-20 19:41:00,
2013-05-20 12:52:00,72.0,41.0,30.13,SE,140,9.0,14.0,33,0.00,,,0.00,,2013-05-20 19:52:00,
2013-05-20 13:01:00,73.0,41.0,30.13,East,92,6.0,14.0,31,0.00,,,0.00,,2013-05-20 20:01:00,
2013-05-20 13:11:00,73.0,41.0,30.13,East,92,6.0,14.0,31,0.00,,,0.00,,2013-05-20 20:11:00,
2013-05-20 13:21:00,73.0,43.0,30.12,SSE,167,8.0,19.0,34,0.00,,,0.00,,2013-05-20 20:21:00,
2013-05-20 13:32:00,73.0,43.0,30.11,ESE,122,4.0,8.0,34,0.00,,,0.00,,2013-05-20 20:32:00,
2013-05-20 13:42:00,73.0,43.0,30.11,ESE,122,4.0,8.0,34,0.00,,,0.00,,2013-05-20 20:42:00,
2013-05-20 13:52:00,73.0,40.0,30.11,SE,130,8.0,13.0,30,0.00,,,0.00,,2013-05-20 20:52:00,
2013-05-20 14:01:00,73.0,41.0,30.09,SE,144,6.0,10.0,31,0.00,,,0.00,,2013-05-20 21:01:00,
2013-05-20 14:11:00,73.0,41.0,30.09,SE,144,6.0,10.0,31,0.00,,,0.00,,2013-05-20 21:11:00,
2013-05-20 14:21:00,73.0,38.0,30.09,ESE,119,6.0,14.0,28,0.00,,,0.00,,2013-05-20 21:21:00,
2013-05-20 14:32:00,74.0,42.0,30.08,SSE,156,5.0,15.0,32,0.00,,,0.00,,2013-05-20 21:32:00,
2013-05-20 14:43:00,74.0,42.0,30.08,SSE,156,5.0,15.0,32,0.00,,,0.00,,2013-05-20 21:43:00,
2013-05-20 14:53:00,73.0,38.0,30.08,ESE,119,7.0,15.0,28,0.00,,,0.00,,2013-05-20 21:53:00,
2013-05-20 15:02:00,74.0,39.0,30.06,East,93,11.0,23.0,28,0.00,,,0.00,,2013-05-20 22:02:00,
2013-05-20 15:12:00,74.0,39.0,30.06,East,93,11.0,23.0,28,0.00,,,0.00,,2013-05-20 22:12:00,
2013-05-20 15:22:00,73.0,41.0,30.06,SE,131,4.0,19.0,32,0.00,,,0.00,,2013-05-20 22:22:00,
2013-05-20 15:33:00,75.0,41.0,30.05,East,81,11.0,15.0,29,0.00,,,0.00,,2013-05-20 22:33:00,
2013-05-20 15:42:00,75.0,41.0,30.05,East,81,11.0,15.0,29,0.00,,,0.00,,2013-05-20 22:42:00,
2013-05-20 15:52:00,75.0,39.0,30.04,ENE,63,6.0,16.0,27,0.00,,,0.00,,2013-05-20 22:52:00,
2013-05-20 16:02:00,75.0,42.0,30.03,ESE,114,8.0,15.0,31,0.00,,,0.00,,2013-05-20 23:02:00,
2013-05-20 16:12:00,75.0,42.0,30.03,ESE,114,8.0,15.0,31,0.00,,,0.00,,2013-05-20 23:12:00,
2013-05-20 16:21:00,75.0,42.0,30.02,SE,133,6.0,12.0,31,0.00,,,0.00,,2013-05-20 23:21:00,
2013-05-20 16:32:00,76.0,41.0,30.01,SE,142,6.0,12.0,29,0.00,,,0.00,,2013-05-20 23:32:00,
2013-05-20 16:42:00,76.0,41.0,30.01,SE,142,6.0,12.0,29,0.00,,,0.00,,2013-05-20 23:42:00,
2013-05-20 16:53:00,76.0,40.0,30.00,East,86,8.0,13.0,27,0.00,,,0.00,,2013-05-20 23:53:00,
2013-05-20 17:01:00,76.0,40.0,29.99,SSW,201,5.0,14.0,27,0.00,,,0.00,,2013-05-21 00:01:00,
2013-05-20 17:11:00,76.0,40.0,29.99,SSW,201,5.0,14.0,27,0.00,,,0.00,,2013-05-21 00:11:00,
2013-05-20 17:21:00,76.0,41.0,29.98,East,99,4.0,7.0,28,0.00,,,0.00,,2013-05-21 00:21:00,
2013-05-20 17:31:00,75.0,39.0,29.98,ESE,122,9.0,15.0,27,0.00,,,0.00,,2013-05-21 00:31:00,
2013-05-20 17:41:00,75.0,39.0,29.98,ESE,122,9.0,15.0,27,0.00,,,0.00,,2013-05-21 00:41:00,
2013-05-20 17:52:00,75.0,40.0,29.97,ESE,112,9.0,14.0,28,0.00,,,0.00,,2013-05-21 00:52:00,
2013-05-20 18:01:00,74.0,40.0,29.96,ESE,108,8.0,14.0,29,0.00,,,0.00,,2013-05-21 01:01:00,
2013-05-20 18:11:00,74.0,40.0,29.96,ESE,108,8.0,14.0,29,0.00,,,0.00,,2013-05-21 01:11:00,
2013-05-20 18:21:00,75.0,41.0,29.95,SSE,148,8.0,13.0,30,0.00,,,0.00,,2013-05-21 01:21:00,
2013-05-20 18:32:00,74.0,41.0,29.94,SE,132,7.0,12.0,30,0.00,,,0.00,,2013-05-21 01:32:00,
2013-05-20 18:42:00,74.0,41.0,29.94,SE,132,7.0,12.0,30,0.00,,,0.00,,2013-05-21 01:42:00,
2013-05-20 18:52:00,74.0,41.0,29.94,East,95,7.0,11.0,31,0.00,,,0.00,,2013-05-21 01:52:00,
2013-05-20 19:01:00,73.0,39.0,29.93,SE,138,7.0,14.0,29,0.00,,,0.00,,2013-05-21 02:01:00,
2013-05-20 19:11:00,73.0,39.0,29.93,SE,138,7.0,14.0,29,0.00,,,0.00,,2013-05-21 02:11:00,
2013-05-20 19:21:00,73.0,39.0,29.92,ESE,112,7.0,11.0,29,0.00,,,0.00,,2013-05-21 02:21:00,
2013-05-20 19:32:00,72.0,40.0,29.92,ESE,120,7.0,13.0,31,0.00,,,0.00,,2013-05-21 02:32:00,
2013-05-20 19:41:00,72.0,40.0,29.92,ESE,120,7.0,13.0,31,0.00,,,0.00,,2013-05-21 02:41:00,
2013-05-20 19:52:00,71.0,41.0,29.91,East,82,6.0,8.0,34,0.00,,,0.00,,2013-05-21 02:52:00,
2013-05-20 20:01:00,71.0,40.0,29.91,ESE,118,4.0,7.0,33,0.00,,,0.00,,2013-05-21 03:01:00,
2013-05-20 20:11:00,71.0,40.0,29.91,ESE,118,4.0,7.0,33,0.00,,,0.00,,2013-05-21 03:11:00,
2013-05-20 20:21:00,70.0,41.0,29.90,ESE,115,6.0,9.0,35,0.00,,,0.00,,2013-05-21 03:21:00,
2013-05-20 20:33:00,70.0,42.0,29.89,ESE,106,3.0,6.0,36,0.00,,,0.00,,2013-05-21 03:33:00,
2013-05-20 20:42:00,70.0,42.0,29.89,ESE,106,3.0,6.0,36,0.00,,,0.00,,2013-05-21 03:42:00,
2013-05-20 20:53:00,69.0,42.0,29.89,ESE,118,3.0,6.0,37,0.00,,,0.00,,2013-05-21 03:53:00,
2013-05-20 21:03:00,68.0,41.0,29.88,East,96,1.0,4.0,38,0.00,,,0.00,,2013-05-21 04:03:00,
2013-05-20 21:12:00,68.0,41.0,29.88,East,96,1.0,4.0,38,0.00,,,0.00,,2013-05-21 04:12:00,
2013-05-20 21:23:00,67.0,41.0,29.88,ESE,113,0.0,7.0,39,0.00,,,0.00,,2013-05-21 04:23:00,
2013-05-20 21:33:00,67.0,42.0,29.88,ENE,70,0.0,3.0,40,0.00,,,0.00,,2013-05-21 04:33:00,
2013-05-20 21:42:00,67.0,42.0,29.88,ENE,70,0.0,3.0,40,0.00,,,0.00,,2013-05-21 04:42:00,
2013-05-20 21:53:00,65.0,42.0,29.87,ENE,70,1.0,2.0,43,0.00,,,0.00,,2013-05-21 04:53:00,
2013-05-20 22:02:00,64.0,41.0,29.87,ENE,70,0.0,0.0,43,0.00,,,0.00,,2013-05-21 05:02:00,
2013-05-20 22:11:00,64.0,41.0,29.87,ENE,70,0.0,0.0,43,0.00,,,0.00,,2013-05-21 05:11:00,
2013-05-20 22:21:00,63.0,41.0,29.86,ENE,70,0.0,1.0,45,0.00,,,0.00,,2013-05-21 05:21:00,
2013-05-20 22:31:00,62.0,42.0,29.86,SE,136,1.0,3.0,47,0.00,,,0.00,,2013-05-21 05:31:00,
2013-05-20 22:42:00,61.0,41.0,29.86,ESE,119,2.0,6.0,47,0.00,,,0.00,,2013-05-21 05:42:00,
2013-05-20 22:52:00,61.0,41.0,29.86,ESE,119,2.0,6.0,47,0.00,,,0.00,,2013-05-21 05:52:00,
2013-05-20 23:01:00,61.0,40.0,29.85,East,86,4.0,6.0,46,0.00,,,0.00,,2013-05-21 06:01:00,
2013-05-20 23:11:00,61.0,40.0,29.85,East,86,4.0,6.0,46,0.00,,,0.00,,2013-05-21 06:11:00,
2013-05-20 23:21:00,61.0,40.0,29.85,East,92,2.0,5.0,46,0.00,,,0.00,,2013-05-21 06:21:00,
2013-05-20 23:32:00,59.0,42.0,29.85,East,92,0.0,2.0,53,0.00,,,0.00,,2013-05-21 06:32:00,
2013-05-20 23:41:00,59.0,42.0,29.85,East,92,0.0,2.0,53,0.00,,,0.00,,2013-05-21 06:41:00,
2013-05-20 23:52:00,56.0,41.0,29.85,East,92,0.0,2.0,57,0.00,,,0.00,,2013-05-21 06:52:00,